Regional Weather Roundup
Issued by NWS

Home | Current Version | Previous Version | Text Only | Print | Product List | Glossary Off
Versions: 1 2 3 4 5 6 7 8 9 10 11 12 13 14 15 16 17 18 19 20 21 22 23 24 25 26 27 28 29 30 31 32 33 34 35 36 37 38 39 40 41 42 43 44 45 46 47 48 49 50

000
ASUS44 KMEG 281600
RWRTN
TENNESSEE HOURLY STATE WEATHER ROUNDUP
NATIONAL WEATHER SERVICE MEMPHIS TN
1000 AM CST FRI NOV 28 2014

TNZ002-004-019-021-049-052-054-088>092-281700-
WEST TENNESSEE

CITY           SKY/WX    TMP DP  RH WIND       PRES   REMARKS
MEMPHIS INTL   SUNNY     44  28  53 S14       30.38F
NWS MEMPHIS      N/A     42 N/A N/A MISG        N/A
JACKSON        SUNNY     39  25  57 S8        30.40F WCI  33
DYERSBURG      SUNNY     37  19  48 S8G18     30.39F WCI  31
UNION CITY     SUNNY     36  28  75 S9        30.36F WCI  29
PARIS          SUNNY     34  25  69 S9        30.38F WCI  26
LEXINGTON      SUNNY     36  25  64 S7        30.40S WCI  30
SAVANNAH       SUNNY     37  23  56 S7        30.42F WCI  32
$$

TNZ008-025-027-028-033-062-065-066-281700-
NORTH MIDDLE TENNESSEE

CITY           SKY/WX    TMP DP  RH WIND       PRES   REMARKS
NASHVILLE      SUNNY     35  20  54 S7        30.43F WCI  29
CLARKSVILLE    SUNNY     35  25  66 S9        30.40F WCI  28
COOKEVILLE     SUNNY     34  19  55 CALM      30.39F
CROSSVILLE     SUNNY     32  15  49 VRB5      30.37F WCI  27
$$

TNZ061-075-076-078-094-096-097-281700-
SOUTH MIDDLE TENNESSEE

CITY           SKY/WX    TMP DP  RH WIND       PRES   REMARKS
TULLAHOMA      SUNNY     34  18  51 VRB5      30.41F WCI  30
WINCHESTER     SUNNY     34  19  55 CALM      30.42F
SHELBYVILLE    SUNNY     36  23  60 E6        30.43F WCI  31
$$

TNZ017-018-042-046-047-281700-
NORTHEAST TENNESSEE

CITY           SKY/WX    TMP DP  RH WIND       PRES   REMARKS
TRI CITIES     MOSUNNY   31  19  61 W7        30.39S WCI  24
ELIZABETHTON   CLOUDY    28  19  69 W6        30.38S WCI  22
$$

TNZ012-013-036-069-073-074-281700-
CENTRAL EAST TENNESSEE

CITY           SKY/WX    TMP DP  RH WIND       PRES   REMARKS
KNOXVILLE      MOSUNNY   32  22  66 CALM      30.43F
OAK RIDGE      MOSUNNY   35  20  54 CALM      30.44F
GATLINBURG     SUNNY     32  19  59 CALM      30.42F
$$

TNZ083-085-099-281700-
SOUTHEAST TENNESSEE

CITY           SKY/WX    TMP DP  RH WIND       PRES   REMARKS
CHATTANOOGA    MOSUNNY   36  20  52 VRB5      30.45F WCI  32
$$

SKY/WX REPORTED AS FAIR MEANS FEW OR NO CLOUDS BELOW
12 THOUSAND FEET.



USA.gov is the U.S. government's official web portal to all federal, state and local government web resources and services.